When you browse on this site, cookies collect data to enhance your experience and personalize the content and advertising you see.
Visit our Privacy Policy to learn more. By continuing to use the site, you agree to this use of cookies and data.
  • In United Kingdom
  • List of Countries
  • For 7 days
  • Water Temperature
  • Satellite Maps
  • Weather Map
  • Weather Widgets
  • user-avatar
    Login

    Hourly Weather Abovyan

    Today, 24 March, Sunday

    Time Temperature Precipitation Wind Pressure Humidity
    00:00 +4°C° 0.1 mm 2 mps 666 mmHg 55%
    01:00 +4°C° 0.1 mm 2 mps 666 mmHg 59%
    02:00 +3°C° 0.1 mm 3 mps 666 mmHg 62%
    03:00 +4°C° 0 mm 3 mps 665 mmHg 62%
    04:00 +4°C° 0.4 mm 3 mps 665 mmHg 64%
    05:00 +3°C° 0.4 mm 3 mps 665 mmHg 66%
    06:00 +3°C° 0.4 mm 3 mps 665 mmHg 68%
    07:00 +4°C° 0.3 mm 3 mps 665 mmHg 65%
    08:00 +5°C° 0.3 mm 3 mps 665 mmHg 62%
    09:00 +7°C° 0.3 mm 3 mps 665 mmHg 59%
    10:00 +8°C° 0.3 mm 3 mps 665 mmHg 57%
    11:00 +8°C° 0.3 mm 3 mps 665 mmHg 55%
    12:00 +9°C° 0.3 mm 2 mps 665 mmHg 54%
    13:00 +9°C° 0.4 mm 3 mps 665 mmHg 55%
    14:00 +9°C° 0.4 mm 3 mps 664 mmHg 57%
    15:00 +7°C° 0.4 mm 4 mps 664 mmHg 59%
    16:00 +7°C° 0.7 mm 3 mps 664 mmHg 61%
    17:00 +5°C° 0.7 mm 3 mps 665 mmHg 64%
    18:00 +4°C° 0.7 mm 3 mps 665 mmHg 67%
    19:00 +4°C° 0.5 mm 3 mps 665 mmHg 67%
    20:00 +4°C° 0.5 mm 3 mps 666 mmHg 67%
    21:00 +3°C° 0.5 mm 3 mps 666 mmHg 67%
    22:00 +3°C° 0.2 mm 3 mps 666 mmHg 67%
    23:00 +2°C° 0.2 mm 3 mps 666 mmHg 67%

    Tomorrow, 25 March, Monday

    Time Temperature Precipitation Wind Pressure Humidity
    00:00 +3°C° 0.2 mm 2 mps 666 mmHg 67%
    01:00 +2°C° 0 mm 3 mps 666 mmHg 66%
    02:00 +1°C° 0 mm 3 mps 666 mmHg 66%
    03:00 +1°C° 0 mm 3 mps 666 mmHg 66%
    04:00 +1°C° 0 mm 3 mps 666 mmHg 65%
    05:00 +1°C° 0 mm 3 mps 666 mmHg 65%
    06:00 +1°C° 0 mm 3 mps 666 mmHg 65%
    07:00 +2°C° 0 mm 3 mps 666 mmHg 62%
    08:00 +3°C° 0 mm 3 mps 666 mmHg 60%
    09:00 +4°C° 0 mm 3 mps 665 mmHg 58%
    10:00 +7°C° 0 mm 3 mps 665 mmHg 56%
    11:00 +8°C° 0 mm 3 mps 665 mmHg 54%
    12:00 +9°C° 0 mm 3 mps 664 mmHg 52%
    13:00 +9°C° 0.1 mm 3 mps 664 mmHg 53%
    14:00 +9°C° 0.1 mm 3 mps 664 mmHg 53%
    15:00 +9°C° 0.1 mm 3 mps 664 mmHg 53%
    16:00 +8°C° 0.3 mm 3 mps 664 mmHg 55%
    17:00 +8°C° 0.3 mm 3 mps 665 mmHg 57%
    18:00 +7°C° 0.3 mm 3 mps 665 mmHg 58%
    19:00 +7°C° 0.2 mm 3 mps 666 mmHg 59%
    20:00 +6°C° 0.2 mm 2 mps 666 mmHg 61%
    21:00 +6°C° 0.2 mm 2 mps 667 mmHg 62%
    22:00 +6°C° 0.2 mm 2 mps 667 mmHg 63%
    23:00 +5°C° 0.2 mm 2 mps 667 mmHg 64%

    Day after tomorrow, 26 March, Tuesday

    Time Temperature Precipitation Wind Pressure Humidity
    00:00 +5°C° 0.2 mm 2 mps 667 mmHg 65%
    01:00 +5°C° 0.2 mm 2 mps 667 mmHg 66%
    02:00 +4°C° 0.2 mm 2 mps 667 mmHg 66%
    03:00 +4°C° 0.2 mm 2 mps 667 mmHg 67%
    04:00 +5°C° 0.2 mm 1 mps 667 mmHg 67%
    05:00 +5°C° 0.2 mm 1 mps 668 mmHg 68%
    06:00 +5°C° 0.2 mm 1 mps 668 mmHg 68%
    07:00 +6°C° 0.2 mm 1 mps 668 mmHg 66%
    08:00 +7°C° 0.2 mm 1 mps 668 mmHg 64%
    09:00 +6°C° 0.2 mm 0 mps 669 mmHg 62%
    10:00 +8°C° 0.2 mm 1 mps 669 mmHg 61%
    11:00 +9°C° 0.2 mm 1 mps 669 mmHg 60%
    12:00 +10°C° 0.2 mm 1 mps 669 mmHg 59%
    13:00 +10°C° 0.1 mm 1 mps 668 mmHg 57%
    14:00 +11°C° 0.1 mm 1 mps 668 mmHg 56%
    15:00 +11°C° 0.1 mm 1 mps 667 mmHg 54%
    16:00 +11°C° 0.1 mm 1 mps 668 mmHg 55%
    17:00 +11°C° 0.1 mm 1 mps 668 mmHg 55%
    18:00 +10°C° 0.1 mm 1 mps 668 mmHg 55%
    19:00 +10°C° 0.1 mm 1 mps 668 mmHg 57%
    20:00 +9°C° 0.1 mm 1 mps 669 mmHg 59%
    21:00 +8°C° 0.1 mm 1 mps 669 mmHg 61%
    22:00 +8°C° 0.1 mm 1 mps 669 mmHg 62%
    23:00 +7°C° 0.1 mm 1 mps 668 mmHg 64%

    27 March, Wednesday

    Time Temperature Precipitation Wind Pressure Humidity
    00:00 +7°C° 0.1 mm 1 mps 668 mmHg 65%
    01:00 +6°C° 0.1 mm 1 mps 668 mmHg 66%
    02:00 +6°C° 0.1 mm 1 mps 668 mmHg 66%
    03:00 +5°C° 0.1 mm 1 mps 668 mmHg 67%
    04:00 +5°C° 0 mm 1 mps 668 mmHg 67%
    05:00 +5°C° 0 mm 1 mps 668 mmHg 68%
    06:00 +5°C° 0 mm 1 mps 668 mmHg 68%
    07:00 +6°C° 0.1 mm 1 mps 668 mmHg 65%
    08:00 +7°C° 0.1 mm 1 mps 668 mmHg 62%
    09:00 +9°C° 0.1 mm 1 mps 669 mmHg 59%
    10:00 +10°C° 0.1 mm 1 mps 668 mmHg 57%
    11:00 +9°C° 0.1 mm 2 mps 668 mmHg 55%
    12:00 +10°C° 0.1 mm 2 mps 668 mmHg 53%
    13:00 +12°C° 0 mm 2 mps 668 mmHg 52%
    14:00 +12°C° 0 mm 2 mps 668 mmHg 51%
    15:00 +13°C° 0 mm 2 mps 668 mmHg 49%
    16:00 +12°C° 0.1 mm 2 mps 668 mmHg 50%
    17:00 +12°C° 0.1 mm 1 mps 669 mmHg 51%
    18:00 +11°C° 0.1 mm 1 mps 669 mmHg 51%
    19:00 +11°C° 0.2 mm 1 mps 669 mmHg 53%
    20:00 +10°C° 0.2 mm 1 mps 670 mmHg 55%
    21:00 +9°C° 0.2 mm 1 mps 671 mmHg 57%
    22:00 +9°C° 0.1 mm 1 mps 670 mmHg 59%
    23:00 +8°C° 0.1 mm 1 mps 670 mmHg 60%

    28 March, Thursday

    Time Temperature Precipitation Wind Pressure Humidity
    00:00 +7°C° 0.1 mm 0 mps 670 mmHg 62%
    01:00 +6°C° 0.1 mm 0 mps 670 mmHg 63%
    02:00 +6°C° 0.1 mm 0 mps 670 mmHg 64%
    03:00 +5°C° 0.1 mm 0 mps 670 mmHg 65%
    04:00 +5°C° 0.1 mm 0 mps 670 mmHg 65%
    05:00 +5°C° 0.1 mm 0 mps 670 mmHg 65%
    06:00 +6°C° 0.1 mm 1 mps 670 mmHg 65%
    07:00 +6°C° 0.2 mm 1 mps 670 mmHg 62%
    08:00 +7°C° 0.2 mm 1 mps 671 mmHg 59%
    09:00 +8°C° 0.2 mm 1 mps 671 mmHg 56%
    10:00 +9°C° 0.3 mm 1 mps 671 mmHg 56%
    11:00 +9°C° 0.3 mm 1 mps 671 mmHg 56%
    12:00 +10°C° 0.3 mm 1 mps 670 mmHg 55%
    13:00 +10°C° 0.4 mm 1 mps 670 mmHg 56%
    14:00 +10°C° 0.4 mm 1 mps 670 mmHg 56%
    15:00 +10°C° 0.4 mm 1 mps 670 mmHg 56%
    16:00 +9°C° 0.3 mm 1 mps 670 mmHg 57%
    17:00 +9°C° 0.3 mm 1 mps 670 mmHg 58%
    18:00 +9°C° 0.3 mm 1 mps 671 mmHg 60%
    19:00 +8°C° 0.3 mm 1 mps 671 mmHg 61%
    20:00 +8°C° 0.3 mm 1 mps 671 mmHg 63%
    21:00 +7°C° 0.3 mm 1 mps 672 mmHg 65%
    22:00 +7°C° 0.4 mm 1 mps 672 mmHg 66%
    23:00 +7°C° 0.4 mm 1 mps 672 mmHg 68%

    29 March, Friday

    Time Temperature Precipitation Wind Pressure Humidity
    00:00 +6°C° 0.4 mm 1 mps 672 mmHg 69%
    01:00 +6°C° 0.3 mm 1 mps 672 mmHg 69%
    02:00 +6°C° 0.3 mm 1 mps 672 mmHg 70%
    03:00 +5°C° 0.3 mm 1 mps 672 mmHg 70%
    04:00 +5°C° 0.1 mm 1 mps 672 mmHg 71%
    05:00 +4°C° 0.1 mm 1 mps 672 mmHg 71%
    06:00 +4°C° 0.1 mm 1 mps 673 mmHg 71%
    07:00 +5°C° 0.1 mm 1 mps 673 mmHg 66%
    08:00 +6°C° 0.1 mm 1 mps 673 mmHg 61%
    09:00 +7°C° 0.1 mm 1 mps 673 mmHg 56%
    10:00 +8°C° 0.1 mm 1 mps 673 mmHg 54%
    11:00 +9°C° 0.1 mm 1 mps 673 mmHg 51%
    12:00 +9°C° 0.1 mm 1 mps 672 mmHg 49%
    13:00 +9°C° 0.1 mm 2 mps 672 mmHg 48%
    14:00 +9°C° 0.1 mm 2 mps 672 mmHg 46%
    15:00 +10°C° 0.1 mm 2 mps 671 mmHg 45%
    16:00 +9°C° 0.2 mm 2 mps 671 mmHg 47%
    17:00 +9°C° 0.2 mm 2 mps 671 mmHg 48%
    18:00 +9°C° 0.2 mm 1 mps 671 mmHg 49%
    19:00 +8°C° 0.1 mm 2 mps 671 mmHg 51%
    20:00 +7°C° 0.1 mm 2 mps 672 mmHg 52%
    21:00 +6°C° 0.1 mm 2 mps 672 mmHg 54%
    22:00 +6°C° 0.2 mm 2 mps 671 mmHg 55%
    23:00 +7°C° 0.2 mm 1 mps 671 mmHg 56%
    Show more